| time (UTC) | temp F | wind direction | speed knots | gust knots | rain 1hr in | rain 24hr in | rain mn in | humidity % | barometer mb |
| 20260507175128 | 90 | 335 | 0.9 | 7.8 | 0.00 | 0.00 | 0.00 | 10 | 966.9 |
| 20260507174633 | 89 | 333 | 2.6 | 13.9 | 0.00 | 0.00 | 0.00 | 10 | 967.0 |
| 20260507174137 | 89 | 173 | 2.6 | 15.6 | 0.00 | 0.00 | 0.00 | 10 | 967.0 |
| 20260507173702 | 89 | 170 | 1.7 | 13.0 | 0.00 | 0.00 | 0.00 | 10 | 967.0 |
| 20260507173139 | 89 | 154 | 5.2 | 13.0 | 0.00 | 0.00 | 0.00 | 10 | 967.1 |
| 20260507172643 | 90 | 157 | 7.0 | 13.0 | 0.00 | 0.00 | 0.00 | 10 | 967.2 |
| 20260507172127 | 90 | 184 | 1.7 | 12.2 | 0.00 | 0.00 | 0.00 | 9 | 967.1 |
| 20260507171652 | 90 | 323 | 0.9 | 15.6 | 0.00 | 0.00 | 0.00 | 10 | 967.1 |
| 20260507171151 | 89 | 333 | 5.2 | 15.6 | 0.00 | 0.00 | 0.00 | 10 | 967.2 |
| 20260507170634 | 88 | 284 | 6.1 | 13.9 | 0.00 | 0.00 | 0.00 | 10 | 967.3 |
| 20260507170132 | 88 | 169 | 7.8 | 13.0 | 0.00 | 0.00 | 0.00 | 10 | 967.2 |
| 20260507165636 | 88 | 141 | 3.5 | 16.5 | 0.00 | 0.00 | 0.00 | 9 | 967.2 |
| 20260507165125 | 88 | 192 | 7.0 | 17.4 | 0.00 | 0.00 | 0.00 | 10 | 967.3 |
| 20260507164629 | 87 | 338 | 0.9 | 15.6 | 0.00 | 0.00 | 0.00 | 11 | 967.2 |
| 20260507164133 | 87 | 163 | 2.6 | 13.9 | 0.00 | 0.00 | 0.00 | 10 | 967.4 |
| 20260507163650 | 86 | 170 | 8.7 | 15.6 | 0.00 | 0.00 | 0.00 | 10 | 967.3 |
| 20260507163155 | 86 | 148 | 2.6 | 19.1 | 0.00 | 0.00 | 0.00 | 11 | 967.3 |
| 20260507162631 | 87 | 157 | 8.7 | 19.1 | 0.00 | 0.00 | 0.00 | 10 | 967.4 |
| 20260507162136 | 87 | 173 | 10.4 | 18.2 | 0.00 | 0.00 | 0.00 | 10 | 967.5 |
| 20260507161640 | 88 | 166 | 4.3 | 21.7 | 0.00 | 0.00 | 0.00 | 10 | 967.5 |
| 20260507161144 | 89 | 156 | 7.0 | 21.7 | 0.00 | 0.00 | 0.00 | 12 | 967.6 |
| 20260507160642 | 88 | 347 | 2.6 | 10.4 | 0.00 | 0.00 | 0.00 | 12 | 967.6 |
| 20260507160146 | 88 | 355 | 0.9 | 9.6 | 0.00 | 0.00 | 0.00 | 12 | 967.6 |
| 20260507155648 | 87 | 355 | 2.6 | 8.7 | 0.00 | 0.00 | 0.00 | 13 | 967.6 |
| 20260507155132 | 87 | 328 | 0.9 | 8.7 | 0.00 | 0.00 | 0.00 | 13 | 967.7 |
| 20260507154636 | 86 | 331 | 3.5 | 13.0 | 0.00 | 0.00 | 0.00 | 14 | 967.8 |
| 20260507154140 | 85 | 336 | 4.3 | 13.0 | 0.00 | 0.00 | 0.00 | 16 | 967.8 |
| 20260507153634 | 84 | 324 | 4.3 | 8.7 | 0.00 | 0.00 | 0.00 | 18 | 967.9 |
| 20260507153139 | 82 | 300 | 0.9 | 5.2 | 0.00 | 0.00 | 0.00 | 19 | 967.9 |
| 20260507152644 | 81 | 299 | 0.0 | 1.7 | 0.00 | 0.00 | 0.00 | 19 | 967.9 |
| 20260507152129 | 80 | 299 | 0.0 | 4.3 | 0.00 | 0.00 | 0.00 | 21 | 967.8 |
| 20260507151626 | 79 | 299 | 0.9 | 4.3 | 0.00 | 0.00 | 0.00 | 21 | 967.8 |
| 20260507151130 | 78 | 304 | 0.9 | 7.8 | 0.00 | 0.00 | 0.00 | 23 | 967.8 |
| 20260507150634 | 76 | 304 | 2.6 | 7.8 | 0.00 | 0.00 | 0.00 | 23 | 967.9 |
| 20260507150159 | 75 | 334 | 0.9 | 5.2 | 0.00 | 0.00 | 0.00 | 25 | 967.9 |
| 20260507145642 | 73 | 344 | 2.6 | 4.3 | 0.00 | 0.00 | 0.00 | 27 | 967.9 |
| 20260507145140 | 72 | 344 | 0.9 | 2.6 | 0.00 | 0.00 | 0.00 | 28 | 967.9 |
| 20260507144644 | 71 | 344 | 0.0 | 4.3 | 0.00 | 0.00 | 0.00 | 29 | 967.8 |
| 20260507144128 | 70 | 344 | 0.0 | 4.3 | 0.00 | 0.00 | 0.00 | 29 | 967.8 |
| 20260507143632 | 69 | 344 | 1.7 | 5.2 | 0.00 | 0.00 | 0.00 | 31 | 967.8 |
| 20260507143158 | 68 | 344 | 0.9 | 5.2 | 0.00 | 0.00 | 0.00 | 31 | 967.7 |
| 20260507142635 | 67 | 345 | 0.9 | 5.2 | 0.00 | 0.00 | 0.00 | 33 | 967.8 |
| 20260507142140 | 66 | 345 | 0.0 | 2.6 | 0.00 | 0.00 | 0.00 | 34 | 967.8 |
| 20260507141705 | 66 | 345 | 0.0 | 2.6 | 0.00 | 0.00 | 0.00 | 35 | 967.7 |
| 20260507141129 | 65 | 345 | 0.0 | 2.6 | 0.00 | 0.00 | 0.00 | 34 | 967.7 |
| 20260507140633 | 65 | 345 | 0.9 | 2.6 | 0.00 | 0.00 | 0.00 | 34 | 967.7 |
| 20260507140158 | 64 | 345 | 0.0 | 4.3 | 0.00 | 0.00 | 0.00 | 34 | 967.7 |
| 20260507135634 | 64 | 345 | 0.9 | 3.5 | 0.00 | 0.00 | 0.00 | 34 | 967.7 |
| 20260507135138 | 64 | 345 | 0.0 | 5.2 | 0.00 | 0.00 | 0.00 | 34 | 967.7 |
| 20260507134642 | 63 | 348 | 0.9 | 8.7 | 0.00 | 0.00 | 0.00 | 34 | 967.6 |
| 20260507134125 | 63 | 348 | 4.3 | 8.7 | 0.00 | 0.00 | 0.00 | 34 | 967.5 |
| 20260507133630 | 63 | 348 | 2.6 | 5.2 | 0.00 | 0.00 | 0.00 | 34 | 967.5 |
| 20260507133134 | 63 | 348 | 2.6 | 5.2 | 0.00 | 0.00 | 0.00 | 34 | 967.5 |
| 20260507132631 | 63 | 348 | 0.9 | 4.3 | 0.00 | 0.00 | 0.00 | 34 | 967.5 |
| 20260507132135 | 63 | 348 | 2.6 | 8.7 | 0.00 | 0.00 | 0.00 | 34 | 967.5 |
| 20260507131639 | 63 | 348 | 2.6 | 10.4 | 0.00 | 0.00 | 0.00 | 33 | 967.4 |
| 20260507131144 | 62 | 348 | 2.6 | 10.4 | 0.00 | 0.00 | 0.00 | 33 | 967.4 |
| 20260507130641 | 62 | 351 | 5.2 | 8.7 | 0.00 | 0.00 | 0.00 | 33 | 967.3 |
| 20260507130126 | 62 | 351 | 6.1 | 7.8 | 0.00 | 0.00 | 0.00 | 33 | 967.2 |
| 20260507125630 | 62 | 355 | 2.6 | 4.3 | 0.00 | 0.00 | 0.00 | 33 | 967.2 |
| 20260507125134 | 62 | 355 | 1.7 | 2.6 | 0.00 | 0.00 | 0.00 | 33 | 967.2 |
| 20260507124632 | 63 | 355 | 0.0 | 1.7 | 0.00 | 0.00 | 0.00 | 33 | 967.1 |
| 20260507124136 | 63 | 355 | 0.0 | 2.6 | 0.00 | 0.00 | 0.00 | 32 | 967.0 |
| 20260507123641 | 63 | 355 | 0.0 | 3.5 | 0.00 | 0.00 | 0.00 | 32 | 967.0 |
| 20260507123145 | 63 | 355 | 1.7 | 5.2 | 0.00 | 0.00 | 0.00 | 33 | 967.0 |
| 20260507122650 | 63 | 355 | 2.6 | 5.2 | 0.00 | 0.00 | 0.00 | 33 | 967.1 |
| 20260507122154 | 63 | 355 | 1.7 | 4.3 | 0.00 | 0.00 | 0.00 | 33 | 967.0 |
| 20260507121631 | 63 | 355 | 0.9 | 3.5 | 0.00 | 0.00 | 0.00 | 33 | 967.0 |
| 20260507121135 | 63 | 355 | 0.9 | 5.2 | 0.00 | 0.00 | 0.00 | 33 | 967.0 |
| 20260507120639 | 63 | 355 | 1.7 | 5.2 | 0.00 | 0.00 | 0.00 | 33 | 967.0 |
| 20260507120143 | 63 | 355 | 1.7 | 3.5 | 0.00 | 0.00 | 0.00 | 33 | 967.1 |
| 20260507115641 | 63 | 355 | 1.7 | 3.5 | 0.00 | 0.00 | 0.00 | 33 | 967.1 |
| 20260507115126 | 63 | 355 | 0.9 | 3.5 | 0.00 | 0.00 | 0.00 | 33 | 967.2 |
| 20260507114631 | 63 | 355 | 0.9 | 3.5 | 0.00 | 0.00 | 0.00 | 33 | 967.3 |
| 20260507114136 | 63 | 355 | 0.0 | 1.7 | 0.00 | 0.00 | 0.00 | 33 | 967.3 |
| 20260507113640 | 63 | 355 | 0.0 | 1.7 | 0.00 | 0.00 | 0.00 | 33 | 967.4 |
| 20260507113136 | 63 | 355 | 0.0 | 1.7 | 0.00 | 0.00 | 0.00 | 32 | 967.3 |
| 20260507112641 | 63 | 355 | 0.0 | 2.6 | 0.00 | 0.00 | 0.00 | 32 | 967.4 |
| 20260507112126 | 63 | 355 | 0.9 | 2.6 | 0.00 | 0.00 | 0.00 | 32 | 967.4 |
| 20260507111630 | 64 | 355 | 0.9 | 3.5 | 0.00 | 0.00 | 0.00 | 31 | 967.4 |
| 20260507111127 | 64 | 355 | 1.7 | 3.5 | 0.00 | 0.00 | 0.00 | 31 | 967.5 |
| 20260507110631 | 64 | 355 | 0.9 | 2.6 | 0.00 | 0.00 | 0.00 | 31 | 967.5 |
| 20260507110130 | 64 | 355 | 0.0 | 3.5 | 0.00 | 0.00 | 0.00 | 31 | 967.6 |
| 20260507105634 | 64 | 355 | 1.7 | 3.5 | 0.00 | 0.00 | 0.00 | 31 | 967.6 |
| 20260507105138 | 64 | 355 | 0.0 | 7.0 | 0.00 | 0.00 | 0.00 | 31 | 967.5 |
| 20260507104636 | 64 | 355 | 2.6 | 7.0 | 0.00 | 0.00 | 0.00 | 31 | 967.5 |
| 20260507104141 | 64 | 351 | 0.9 | 4.3 | 0.00 | 0.00 | 0.00 | 31 | 967.7 |
| 20260507103625 | 64 | 351 | 1.7 | 4.3 | 0.00 | 0.00 | 0.00 | 31 | 967.6 |
| 20260507103150 | 64 | 351 | 0.9 | 2.6 | 0.00 | 0.00 | 0.00 | 31 | 967.7 |
| 20260507102653 | 64 | 351 | 0.0 | 0.9 | 0.00 | 0.00 | 0.00 | 30 | 967.7 |
| 20260507102130 | 65 | 351 | 0.0 | 2.6 | 0.00 | 0.00 | 0.00 | 30 | 967.7 |
| 20260507101634 | 65 | 351 | 0.0 | 8.7 | 0.00 | 0.00 | 0.00 | 29 | 967.8 |
| 20260507101138 | 65 | 350 | 4.3 | 9.6 | 0.00 | 0.00 | 0.00 | 29 | 967.8 |
| 20260507100643 | 65 | 355 | 4.3 | 8.7 | 0.00 | 0.00 | 0.00 | 29 | 967.8 |
| 20260507100141 | 65 | 355 | 5.2 | 10.4 | 0.00 | 0.00 | 0.00 | 29 | 967.7 |
| 20260507095625 | 65 | 351 | 6.1 | 11.3 | 0.00 | 0.00 | 0.00 | 29 | 967.7 |
| 20260507095130 | 65 | 328 | 7.8 | 13.9 | 0.00 | 0.00 | 0.00 | 29 | 967.7 |
| 20260507094628 | 65 | 329 | 9.6 | 13.9 | 0.00 | 0.00 | 0.00 | 28 | 967.7 |
| 20260507094131 | 66 | 330 | 8.7 | 13.0 | 0.00 | 0.00 | 0.00 | 29 | 967.7 |
| 20260507093636 | 66 | 355 | 6.1 | 9.6 | 0.00 | 0.00 | 0.00 | 28 | 967.6 |
| 20260507093202 | 66 | 355 | 5.2 | 11.3 | 0.00 | 0.00 | 0.00 | 28 | 967.6 |
| 20260507092645 | 66 | 355 | 6.1 | 11.3 | 0.00 | 0.00 | 0.00 | 28 | 967.6 |
| 20260507092143 | 66 | 355 | 8.7 | 12.2 | 0.00 | 0.00 | 0.00 | 28 | 967.6 |
| 20260507091627 | 66 | 342 | 7.8 | 14.8 | 0.00 | 0.00 | 0.00 | 27 | 967.6 |
| 20260507091132 | 67 | 322 | 9.6 | 14.8 | 0.00 | 0.00 | 0.00 | 27 | 967.6 |
| 20260507090637 | 67 | 342 | 8.7 | 13.9 | 0.00 | 0.00 | 0.00 | 27 | 967.7 |
| 20260507090141 | 67 | 5 | 7.8 | 16.5 | 0.00 | 0.00 | 0.00 | 27 | 967.7 |
| 20260507085646 | 67 | 287 | 10.4 | 16.5 | 0.00 | 0.00 | 0.00 | 28 | 967.6 |
| 20260507085142 | 67 | 17 | 0.0 | 9.6 | 0.00 | 0.00 | 0.00 | 28 | 967.7 |
| 20260507084626 | 67 | 19 | 4.3 | 10.4 | 0.00 | 0.00 | 0.00 | 28 | 967.6 |
| 20260507084130 | 66 | 360 | 7.8 | 10.4 | 0.00 | 0.00 | 0.00 | 29 | 967.7 |
| 20260507083635 | 66 | 40 | 6.1 | 9.6 | 0.00 | 0.00 | 0.00 | 28 | 967.8 |
| 20260507083201 | 66 | 42 | 4.3 | 7.8 | 0.00 | 0.00 | 0.00 | 28 | 967.8 |
| 20260507082638 | 66 | 45 | 3.5 | 6.1 | 0.00 | 0.00 | 0.00 | 28 | 967.9 |
| 20260507082203 | 66 | 46 | 1.7 | 4.3 | 0.00 | 0.00 | 0.00 | 29 | 968.0 |
| 20260507081626 | 66 | 46 | 0.0 | 0.9 | 0.00 | 0.00 | 0.00 | 29 | 968.0 |
| 20260507081131 | 66 | 46 | 0.0 | 0.0 | 0.00 | 0.00 | 0.00 | 29 | 967.9 |
| 20260507080633 | 67 | 46 | 0.0 | 0.0 | 0.00 | 0.00 | 0.00 | 29 | 968.0 |
| 20260507075627 | 67 | 46 | 0.0 | 0.9 | 0.00 | 0.00 | 0.00 | 29 | 968.0 |
| 20260507075132 | 67 | 46 | 0.0 | 3.5 | 0.00 | 0.00 | 0.00 | 28 | 968.0 |
| 20260507074636 | 67 | 46 | 0.0 | 5.2 | 0.00 | 0.00 | 0.00 | 28 | 967.9 |
| 20260507074140 | 67 | 46 | 2.6 | 8.7 | 0.00 | 0.00 | 0.00 | 28 | 967.9 |
| 20260507073639 | 67 | 46 | 3.5 | 8.7 | 0.00 | 0.00 | 0.00 | 28 | 967.9 |
| 20260507073144 | 67 | 73 | 1.7 | 3.5 | 0.00 | 0.00 | 0.00 | 28 | 967.9 |
| 20260507072648 | 67 | 73 | 0.9 | 5.2 | 0.00 | 0.00 | 0.00 | 28 | 968.0 |
| 20260507072130 | 68 | 73 | 3.5 | 5.2 | 0.00 | 0.00 | 0.00 | 28 | 967.9 |
| 20260507071635 | 68 | 73 | 2.6 | 6.1 | 0.00 | 0.00 | 0.00 | 28 | 967.8 |
| 20260507071153 | 68 | 73 | 0.0 | 1.7 | 0.00 | 0.00 | 0.00 | 28 | 967.9 |
| 20260507070637 | 68 | 73 | 0.0 | 0.9 | 0.00 | 0.00 | 0.00 | 28 | 967.9 |
| 20260507070142 | 68 | 73 | 0.0 | 4.3 | 0.00 | 0.00 | 0.00 | 29 | 967.9 |
| 20260507065646 | 68 | 73 | 1.7 | 4.3 | 0.00 | 0.00 | 0.00 | 29 | 967.9 |
| 20260507065125 | 69 | 73 | 0.0 | 0.9 | 0.00 | 0.00 | 0.00 | 29 | 967.9 |
| 20260507064628 | 69 | 73 | 0.0 | 5.2 | 0.00 | 0.00 | 0.00 | 28 | 967.9 |
| 20260507064133 | 69 | 73 | 2.6 | 5.2 | 0.00 | 0.00 | 0.00 | 28 | 967.8 |
| 20260507063637 | 69 | 73 | 2.6 | 4.3 | 0.00 | 0.00 | 0.00 | 28 | 967.9 |
| 20260507063143 | 69 | 73 | 0.0 | 0.0 | 0.00 | 0.00 | 0.00 | 28 | 967.8 |
| 20260507062640 | 69 | 73 | 0.0 | 2.6 | 0.00 | 0.00 | 0.00 | 27 | 967.9 |
| 20260507062205 | 70 | 73 | 0.9 | 2.6 | 0.00 | 0.00 | 0.00 | 27 | 967.9 |
| 20260507061628 | 70 | 73 | 0.0 | 0.0 | 0.00 | 0.00 | 0.00 | 27 | 967.8 |
| 20260507061134 | 70 | 73 | 0.0 | 0.0 | 0.00 | 0.00 | 0.00 | 27 | 967.8 |
| 20260507060632 | 70 | 73 | 0.0 | 0.0 | 0.00 | 0.00 | 0.00 | 26 | 967.9 |
| 20260507060137 | 71 | 73 | 0.0 | 0.0 | 0.00 | 0.00 | 0.00 | 26 | 967.8 |
| 20260507055656 | 71 | 73 | 0.0 | 0.0 | 0.00 | 0.00 | 0.00 | 26 | 967.9 |
| 20260507055139 | 71 | 73 | 0.0 | 0.9 | 0.00 | 0.00 | 0.00 | 26 | 967.9 |
| 20260507054637 | 71 | 73 | 0.0 | 0.0 | 0.00 | 0.00 | 0.00 | 26 | 967.9 |
| 20260507054142 | 71 | 73 | 0.0 | 0.9 | 0.00 | 0.00 | 0.00 | 26 | 967.8 |
| 20260507053626 | 71 | 73 | 0.0 | 0.9 | 0.00 | 0.00 | 0.00 | 27 | 967.9 |
| 20260507053130 | 71 | 73 | 0.0 | 0.0 | 0.00 | 0.00 | 0.00 | 27 | 967.9 |
| 20260507052633 | 71 | 73 | 0.0 | 0.0 | 0.00 | 0.00 | 0.00 | 28 | 967.9 |
| 20260507052158 | 72 | 73 | 0.0 | 0.0 | 0.00 | 0.00 | 0.00 | 28 | 967.9 |
| 20260507051702 | 72 | 73 | 0.0 | 0.0 | 0.00 | 0.00 | 0.00 | 28 | 967.9 |
| 20260507051145 | 72 | 73 | 0.0 | 0.0 | 0.00 | 0.00 | 0.00 | 28 | 967.9 |
| 20260507050642 | 72 | 73 | 0.0 | 0.0 | 0.00 | 0.00 | 0.00 | 26 | 967.9 |
| 20260507050125 | 73 | 73 | 0.0 | 0.0 | 0.00 | 0.00 | 0.00 | 26 | 967.8 |
| 20260507045629 | 73 | 73 | 0.0 | 0.0 | 0.00 | 0.00 | 0.00 | 26 | 967.7 |
| 20260507045128 | 73 | 73 | 0.0 | 0.0 | 0.00 | 0.00 | 0.00 | 25 | 967.6 |
| 20260507044633 | 73 | 73 | 0.0 | 1.7 | 0.00 | 0.00 | 0.00 | 25 | 967.7 |
| 20260507044158 | 73 | 73 | 0.0 | 1.7 | 0.00 | 0.00 | 0.00 | 25 | 967.6 |
| 20260507043642 | 73 | 73 | 0.0 | 1.7 | 0.00 | 0.00 | 0.00 | 25 | 967.6 |
| 20260507043146 | 74 | 73 | 0.0 | 0.0 | 0.00 | 0.00 | 0.00 | 24 | 967.6 |
| 20260507042643 | 74 | 73 | 0.0 | 0.0 | 0.00 | 0.00 | 0.00 | 24 | 967.5 |
| 20260507042149 | 74 | 73 | 0.0 | 0.0 | 0.00 | 0.00 | 0.00 | 24 | 967.5 |
| 20260507041632 | 75 | 73 | 0.0 | 0.0 | 0.00 | 0.00 | 0.00 | 24 | 967.4 |
| 20260507041157 | 75 | 73 | 0.0 | 0.0 | 0.00 | 0.00 | 0.00 | 23 | 967.4 |
| 20260507040641 | 75 | 73 | 0.0 | 0.0 | 0.00 | 0.00 | 0.00 | 23 | 967.3 |
| 20260507040146 | 75 | 73 | 0.0 | 0.0 | 0.00 | 0.00 | 0.00 | 22 | 967.2 |
| 20260507035643 | 76 | 73 | 0.0 | 0.0 | 0.00 | 0.00 | 0.00 | 22 | 967.2 |
| 20260507035151 | 76 | 73 | 0.0 | 0.0 | 0.00 | 0.00 | 0.00 | 22 | 967.0 |
| 20260507034634 | 76 | 73 | 0.0 | 2.6 | 0.00 | 0.00 | 0.00 | 22 | 966.9 |
| 20260507034159 | 76 | 73 | 0.9 | 2.6 | 0.00 | 0.00 | 0.00 | 21 | 967.0 |
| 20260507033702 | 77 | 73 | 0.0 | 0.0 | 0.00 | 0.00 | 0.00 | 22 | 966.9 |
| 20260507033139 | 77 | 73 | 0.0 | 3.5 | 0.00 | 0.00 | 0.00 | 21 | 966.8 |
| 20260507032643 | 77 | 73 | 0.0 | 3.5 | 0.00 | 0.00 | 0.00 | 21 | 966.7 |
| 20260507032127 | 77 | 73 | 0.0 | 0.9 | 0.00 | 0.00 | 0.00 | 21 | 966.7 |
| 20260507031633 | 78 | 73 | 0.0 | 1.7 | 0.00 | 0.00 | 0.00 | 21 | 966.7 |
| 20260507031130 | 78 | 73 | 0.0 | 1.7 | 0.00 | 0.00 | 0.00 | 21 | 966.6 |
| 20260507030635 | 78 | 73 | 0.0 | 3.5 | 0.00 | 0.00 | 0.00 | 20 | 966.5 |
| 20260507030139 | 78 | 73 | 0.0 | 3.5 | 0.00 | 0.00 | 0.00 | 20 | 966.4 |
| 20260507025638 | 78 | 73 | 0.0 | 3.5 | 0.00 | 0.00 | 0.00 | 20 | 966.3 |
| 20260507025203 | 79 | 73 | 0.9 | 3.5 | 0.00 | 0.00 | 0.00 | 20 | 966.3 |
| 20260507024627 | 79 | 73 | 0.9 | 3.5 | 0.00 | 0.00 | 0.00 | 20 | 966.3 |
| 20260507024132 | 79 | 73 | 0.9 | 3.5 | 0.00 | 0.00 | 0.00 | 20 | 966.2 |
| 20260507023636 | 79 | 73 | 0.0 | 4.3 | 0.00 | 0.00 | 0.00 | 20 | 966.2 |
| 20260507023134 | 80 | 73 | 0.0 | 4.3 | 0.00 | 0.00 | 0.00 | 20 | 966.0 |
| 20260507022638 | 80 | 70 | 0.0 | 4.3 | 0.00 | 0.00 | 0.00 | 19 | 966.1 |
| 20260507022203 | 80 | 74 | 0.0 | 3.5 | 0.00 | 0.00 | 0.00 | 19 | 966.1 |
| 20260507021648 | 80 | 74 | 0.0 | 5.2 | 0.00 | 0.00 | 0.00 | 19 | 966.1 |
| 20260507021154 | 81 | 80 | 0.0 | 5.2 | 0.00 | 0.00 | 0.00 | 19 | 966.1 |
| 20260507020631 | 81 | 76 | 0.9 | 6.1 | 0.00 | 0.00 | 0.00 | 19 | 966.0 |
| 20260507020135 | 81 | 92 | 1.7 | 9.6 | 0.00 | 0.00 | 0.00 | 19 | 966.0 |
| 20260507015641 | 81 | 140 | 2.6 | 9.6 | 0.00 | 0.00 | 0.00 | 19 | 966.0 |
| 20260507015146 | 82 | 103 | 0.9 | 6.1 | 0.00 | 0.00 | 0.00 | 19 | 966.0 |
| 20260507014650 | 82 | 115 | 0.9 | 5.2 | 0.00 | 0.00 | 0.00 | 19 | 966.0 |
| 20260507014134 | 82 | 98 | 1.7 | 8.7 | 0.00 | 0.00 | 0.00 | 19 | 965.9 |
| 20260507013637 | 82 | 150 | 1.7 | 8.7 | 0.00 | 0.00 | 0.00 | 19 | 965.8 |
| 20260507013150 | 82 | 135 | 0.0 | 6.1 | 0.00 | 0.00 | 0.00 | 19 | 965.8 |
| 20260507012635 | 82 | 157 | 0.0 | 15.6 | 0.00 | 0.00 | 0.00 | 19 | 965.8 |
| 20260507012125 | 82 | 158 | 4.3 | 15.6 | 0.00 | 0.00 | 0.00 | 19 | 965.9 |
| 20260507011630 | 82 | 161 | 7.0 | 14.8 | 0.00 | 0.00 | 0.00 | 19 | 965.8 |
| 20260507011133 | 82 | 153 | 5.2 | 13.9 | 0.00 | 0.00 | 0.00 | 19 | 965.7 |
| 20260507010631 | 82 | 150 | 5.2 | 15.6 | 0.00 | 0.00 | 0.00 | 19 | 965.7 |
| 20260507010152 | 82 | 170 | 7.0 | 14.8 | 0.00 | 0.00 | 0.00 | 20 | 965.7 |
| 20260507005636 | 82 | 155 | 5.2 | 14.8 | 0.00 | 0.00 | 0.00 | 19 | 965.8 |
| 20260507005125 | 82 | 154 | 6.1 | 14.8 | 0.00 | 0.00 | 0.00 | 19 | 965.7 |
| 20260507004645 | 82 | 156 | 5.2 | 16.5 | 0.00 | 0.00 | 0.00 | 19 | 965.8 |
| 20260507004127 | 82 | 162 | 9.6 | 16.5 | 0.00 | 0.00 | 0.00 | 20 | 965.8 |
| 20260507003631 | 82 | 156 | 4.3 | 15.6 | 0.00 | 0.00 | 0.00 | 19 | 965.7 |
| 20260507003135 | 82 | 140 | 7.8 | 18.2 | 0.00 | 0.00 | 0.00 | 19 | 965.8 |
| 20260507002640 | 82 | 165 | 10.4 | 18.2 | 0.00 | 0.00 | 0.00 | 20 | 965.8 |
| 20260507002146 | 82 | 151 | 8.7 | 15.6 | 0.00 | 0.00 | 0.00 | 19 | 965.9 |
| 20260507001645 | 82 | 153 | 5.2 | 18.2 | 0.00 | 0.00 | 0.00 | 19 | 965.9 |
| 20260507001128 | 82 | 163 | 7.0 | 18.2 | 0.00 | 0.00 | 0.00 | 20 | 965.9 |
| 20260507000632 | 82 | 141 | 9.6 | 19.1 | 0.00 | 0.00 | 0.00 | 20 | 965.8 |
| 20260507000136 | 82 | 172 | 7.0 | 12.2 | 0.00 | 0.00 | 0.00 | 19 | 965.9 |
| 20260506235640 | 82 | 156 | 2.6 | 17.4 | 0.00 | 0.00 | 0.00 | 20 | 965.9 |
| 20260506235140 | 82 | 177 | 3.5 | 17.4 | 0.00 | 0.00 | 0.00 | 20 | 965.9 |
| 20260506234637 | 82 | 163 | 11.3 | 18.2 | 0.00 | 0.00 | 0.00 | 20 | 965.8 |
| 20260506234125 | 82 | 173 | 7.8 | 18.2 | 0.00 | 0.00 | 0.00 | 20 | 965.9 |
| 20260506233630 | 82 | 161 | 9.6 | 21.7 | 0.00 | 0.00 | 0.00 | 20 | 966.1 |
| 20260506233135 | 82 | 138 | 11.3 | 21.7 | 0.00 | 0.00 | 0.00 | 19 | 966.1 |
| 20260506232640 | 82 | 138 | 2.6 | 16.5 | 0.00 | 0.00 | 0.00 | 19 | 966.1 |
| 20260506232137 | 82 | 153 | 4.3 | 16.5 | 0.00 | 0.00 | 0.00 | 20 | 966.2 |
| 20260506231642 | 82 | 161 | 5.2 | 12.2 | 0.00 | 0.00 | 0.00 | 19 | 966.2 |
| 20260506231148 | 83 | 153 | 6.1 | 13.0 | 0.00 | 0.00 | 0.00 | 20 | 966.3 |
| 20260506230625 | 82 | 158 | 5.2 | 13.0 | 0.00 | 0.00 | 0.00 | 20 | 966.3 |
| 20260506230130 | 82 | 155 | 5.2 | 22.6 | 0.00 | 0.00 | 0.00 | 20 | 966.4 |
| 20260506225634 | 82 | 168 | 6.1 | 22.6 | 0.00 | 0.00 | 0.00 | 21 | 966.4 |
| 20260506225138 | 82 | 167 | 8.7 | 18.2 | 0.00 | 0.00 | 0.00 | 21 | 966.4 |
| 20260506224638 | 82 | 150 | 7.8 | 19.1 | 0.00 | 0.00 | 0.00 | 21 | 966.5 |
| 20260506224143 | 81 | 170 | 10.4 | 19.1 | 0.00 | 0.00 | 0.00 | 20 | 966.5 |
| 20260506223640 | 82 | 169 | 10.4 | 19.1 | 0.00 | 0.00 | 0.00 | 20 | 966.6 |
| 20260506223205 | 82 | 155 | 7.8 | 14.8 | 0.00 | 0.00 | 0.00 | 20 | 966.7 |
| 20260506222627 | 82 | 153 | 4.3 | 14.8 | 0.00 | 0.00 | 0.00 | 21 | 966.6 |
| 20260506222132 | 82 | 167 | 8.7 | 15.6 | 0.00 | 0.00 | 0.00 | 20 | 966.8 |
| 20260506221630 | 82 | 169 | 7.0 | 20.9 | 0.00 | 0.00 | 0.00 | 21 | 966.9 |
| 20260506221155 | 82 | 171 | 12.2 | 20.9 | 0.00 | 0.00 | 0.00 | 20 | 966.9 |
| 20260506220639 | 81 | 165 | 3.5 | 15.6 | 0.00 | 0.00 | 0.00 | 22 | 967.0 |
| 20260506220124 | 81 | 163 | 6.1 | 20.0 | 0.00 | 0.00 | 0.00 | 22 | 967.0 |
| 20260506215628 | 81 | 157 | 11.3 | 20.0 | 0.00 | 0.00 | 0.00 | 21 | 967.2 |
| 20260506215133 | 82 | 172 | 10.4 | 17.4 | 0.00 | 0.00 | 0.00 | 21 | 967.3 |
| 20260506214632 | 82 | 156 | 8.7 | 15.6 | 0.00 | 0.00 | 0.00 | 20 | 967.2 |
| 20260506214157 | 82 | 116 | 3.5 | 17.4 | 0.00 | 0.00 | 0.00 | 21 | 967.3 |
| 20260506213641 | 83 | 160 | 7.0 | 16.5 | 0.00 | 0.00 | 0.00 | 21 | 967.4 |
| 20260506213125 | 83 | 146 | 5.2 | 12.2 | 0.00 | 0.00 | 0.00 | 21 | 967.6 |
| 20260506212630 | 82 | 165 | 7.0 | 16.5 | 0.00 | 0.00 | 0.00 | 21 | 967.6 |
| 20260506212131 | 81 | 341 | 10.4 | 24.3 | 0.00 | 0.00 | 0.00 | 21 | 967.6 |
| 20260506211629 | 81 | 152 | 6.1 | 16.5 | 0.00 | 0.00 | 0.00 | 21 | 967.8 |
| 20260506211132 | 81 | 165 | 5.2 | 21.7 | 0.00 | 0.00 | 0.00 | 21 | 967.9 |
| 20260506210637 | 81 | 155 | 9.6 | 21.7 | 0.00 | 0.00 | 0.00 | 21 | 968.0 |
| 20260506210142 | 81 | 155 | 7.8 | 21.7 | 0.00 | 0.00 | 0.00 | 22 | 968.1 |
| 20260506205639 | 81 | 184 | 9.6 | 24.3 | 0.00 | 0.00 | 0.00 | 22 | 968.1 |
| 20260506205205 | 81 | 169 | 7.8 | 22.6 | 0.00 | 0.00 | 0.00 | 21 | 968.2 |
| 20260506204628 | 82 | 166 | 9.6 | 18.2 | 0.00 | 0.00 | 0.00 | 21 | 968.2 |
| 20260506204132 | 82 | 157 | 3.5 | 13.9 | 0.00 | 0.00 | 0.00 | 21 | 968.2 |
| 20260506203658 | 81 | 175 | 5.2 | 14.8 | 0.00 | 0.00 | 0.00 | 22 | 968.3 |
| 20260506203203 | 81 | 153 | 0.9 | 22.6 | 0.00 | 0.00 | 0.00 | 22 | 968.5 |
| 20260506202639 | 81 | 173 | 4.3 | 22.6 | 0.00 | 0.00 | 0.00 | 22 | 968.4 |
| 20260506202124 | 81 | 162 | 6.1 | 17.4 | 0.00 | 0.00 | 0.00 | 21 | 968.4 |
| 20260506201628 | 81 | 153 | 7.8 | 20.0 | 0.00 | 0.00 | 0.00 | 22 | 968.4 |
| 20260506201133 | 80 | 149 | 2.6 | 25.2 | 0.00 | 0.00 | 0.00 | 22 | 968.4 |
| 20260506200637 | 81 | 355 | 1.7 | 13.9 | 0.00 | 0.00 | 0.00 | 22 | 968.5 |
| 20260506200203 | 81 | 169 | 10.4 | 17.4 | 0.00 | 0.00 | 0.00 | 21 | 968.6 |
| 20260506195640 | 82 | 161 | 8.7 | 19.1 | 0.00 | 0.00 | 0.00 | 21 | 968.6 |
| 20260506195124 | 82 | 153 | 7.8 | 13.0 | 0.00 | 0.00 | 0.00 | 21 | 968.7 |
| 20260506194629 | 82 | 176 | 5.2 | 13.0 | 0.00 | 0.00 | 0.00 | 21 | 968.7 |
| 20260506194132 | 82 | 138 | 7.0 | 14.8 | 0.00 | 0.00 | 0.00 | 22 | 968.8 |
| 20260506193630 | 82 | 158 | 7.8 | 25.2 | 0.00 | 0.00 | 0.00 | 21 | 968.8 |
| 20260506193135 | 83 | 161 | 7.8 | 25.2 | 0.00 | 0.00 | 0.00 | 21 | 968.9 |
| 20260506192640 | 83 | 159 | 3.5 | 17.4 | 0.00 | 0.00 | 0.00 | 21 | 968.8 |
| 20260506192145 | 84 | 157 | 12.2 | 17.4 | 0.00 | 0.00 | 0.00 | 20 | 968.9 |
| 20260506191643 | 84 | 157 | 6.1 | 16.5 | 0.00 | 0.00 | 0.00 | 21 | 968.9 |
| 20260506191127 | 85 | 153 | 7.0 | 16.5 | 0.00 | 0.00 | 0.00 | 20 | 969.0 |
| 20260506190631 | 85 | 344 | 5.2 | 11.3 | 0.00 | 0.00 | 0.00 | 20 | 969.1 |
| 20260506190156 | 84 | 5 | 2.6 | 12.2 | 0.00 | 0.00 | 0.00 | 21 | 969.1 |
| 20260506185632 | 84 | 164 | 4.3 | 12.2 | 0.00 | 0.00 | 0.00 | 20 | 969.2 |
| 20260506185137 | 83 | 164 | 0.9 | 6.1 | 0.00 | 0.00 | 0.00 | 21 | 969.2 |
| 20260506184702 | 82 | 164 | 0.9 | 10.4 | 0.00 | 0.00 | 0.00 | 22 | 969.4 |
| 20260506184125 | 83 | 165 | 4.3 | 10.4 | 0.00 | 0.00 | 0.00 | 21 | 969.3 |
| 20260506183630 | 82 | 123 | 1.7 | 14.8 | 0.00 | 0.00 | 0.00 | 21 | 969.4 |
| 20260506183128 | 81 | 10 | 2.6 | 17.4 | 0.00 | 0.00 | 0.00 | 23 | 969.5 |
| 20260506182633 | 80 | 178 | 0.9 | 17.4 | 0.00 | 0.00 | 0.00 | 23 | 969.6 |
| 20260506182139 | 81 | 165 | 1.7 | 13.0 | 0.00 | 0.00 | 0.00 | 22 | 969.7 |
| 20260506181637 | 81 | 163 | 4.3 | 9.6 | 0.00 | 0.00 | 0.00 | 22 | 969.6 |
| 20260506181141 | 81 | 22 | 2.6 | 9.6 | 0.00 | 0.00 | 0.00 | 23 | 969.8 |
| 20260506180625 | 80 | 158 | 1.7 | 14.8 | 0.00 | 0.00 | 0.00 | 23 | 969.8 |
| 20260506180130 | 80 | 158 | 3.5 | 14.8 | 0.00 | 0.00 | 0.00 | 23 | 969.8 |
| 20260506175629 | 79 | 346 | 7.8 | 12.2 | 0.00 | 0.00 | 0.00 | 26 | 969.8 |